Theta_e
349 352 348 349 349 349 349 350 351 352 348 346 347 348 349 349 344 347 350 351 352 351 352 352 352 352 351 352 350 349 351 344 345 344 345 345 341 341 348 345 346 344 347
348 352 346 348 349 349 350 350 350 347 348 348 348 350 346 351 345 348 351 353 353 353 351 350 351 349 351 349 349 348 349 343 348 349 348 348 348 346 347 347 346 339 344
348 351 351 345 348 350 350 350 349 345 346 348 350 351 349 349 350 352 349 352 350 352 352 352 352 352 351 349 348 352 347 341 339 348 348 339 345 345 346 340 333 349 344
348 346 350 341 347 349 352 350 350 350 349 347 348 349 349 348 347 353 353 353 352 347 353 349 352 350 349 349 350 349 342 343 343 347 348 342 336 346 339 345 345 345 342
348 347 349 341 344 348 350 352 353 354 354 353 353 351 349 350 350 349 351 352 349 353 348 347 352 350 348 350 350 346 339 338 342 348 349 336 339 345 339 335 340 346 344
349 352 340 341 345 352 352 349 353 353 353 352 353 352 350 348 348 349 349 349 351 350 352 352 349 349 349 350 349 343 335 337 345 350 342 343 336 335 348 349 344 346 343
352 353 339 338 347 351 352 352 353 353 351 351 354 353 351 350 349 352 348 349 348 352 347 350 349 351 350 351 349 343 336 344 348 349 341 348 343 342 337 346 345 346 335
356 355 351 338 342 345 352 348 348 347 350 353 353 348 346 349 346 346 347 348 347 351 347 351 351 353 351 352 350 341 337 344 350 349 344 346 333 334 337 341 337 339 336
355 355 355 353 349 347 350 353 352 350 350 350 349 350 347 348 351 347 345 346 349 347 348 350 351 350 351 351 348 337 340 341 345 350 346 345 339 330 340 332 340 344 337
355 356 355 355 356 354 353 351 351 353 350 347 348 347 345 348 351 347 344 344 348 347 348 350 350 351 348 349 345 342 342 341 342 349 348 346 333 326 341 341 330 344 346
354 354 354 355 355 355 354 350 345 347 352 353 353 350 346 350 350 349 349 349 344 351 350 351 351 351 346 345 342 341 343 342 348 347 347 343 341 332 331 347 345 335 336
347 353 354 355 355 356 355 355 352 352 351 348 350 351 349 350 350 351 349 348 347 343 348 351 349 351 350 347 341 341 342 345 346 345 347 344 341 337 332 342 347 339 341
349 348 355 353 354 352 352 352 353 352 352 350 350 351 350 351 350 350 351 350 347 347 347 346 348 347 349 347 347 346 345 344 345 345 347 345 342 340 339 337 338 338 336
350 350 349 350 351 350 352 350 351 350 353 353 351 349 349 347 348 350 350 349 349 348 346 349 349 348 348 348 349 346 347 347 344 345 348 346 346 342 340 342 342 342 340
351 351 351 352 352 350 352 350 352 353 349 348 349 338 348 349 349 348 345 349 348 349 350 348 348 349 349 348 350 351 349 348 348 345 345 345 346 344 341 343 344 343 343
351 352 354 354 354 353 353 353 352 351 352 350 345 339 338 343 342 346 348 347 350 349 350 352 350 348 348 349 348 347 348 347 347 346 347 345 346 346 343 342 343 343 344
352 352 356 357 358 357 357 355 354 354 351 351 350 350 348 342 342 343 348 348 348 350 349 347 346 348 350 346 349 348 346 347 346 347 349 347 347 347 345 343 342 342 343
352 353 356 357 359 359 359 358 354 351 351 350 350 350 352 349 347 343 345 348 347 348 348 347 346 349 347 349 347 349 349 350 348 347 345 349 348 347 347 346 346 342 342
354 356 356 357 359 360 359 357 355 350 347 349 349 349 354 352 347 343 345 346 348 348 348 349 349 347 346 346 349 348 345 345 348 346 349 346 347 351 349 349 348 346 342
357 357 358 360 359 359 359 355 355 345 350 351 351 351 352 350 348 347 345 346 348 349 347 351 348 348 346 347 346 349 348 347 349 346 347 347 347 345 347 352 350 349 345
357 361 363 362 361 361 358 358 354 342 350 353 353 352 352 352 349 345 345 343 348 348 347 346 343 347 348 348 348 347 346 349 350 348 347 349 348 348 347 350 349 346 349
357 363 364 361 362 364 361 356 351 349 350 352 353 350 351 351 351 346 344 343 348 347 345 342 342 345 347 347 347 350 353 350 347 350 348 350 348 348 349 349 348 345 345
359 363 367 362 367 367 363 360 346 341 350 355 353 351 351 351 350 349 347 346 344 342 341 341 340 344 345 346 348 349 353 353 348 348 348 348 347 348 343 342 349 349 348
358 364 367 364 368 366 362 355 348 352 354 354 353 351 352 350 350 351 349 347 346 342 341 341 341 344 342 346 348 346 345 346 347 349 344 347 349 349 349 347 348 348 349
358 366 364 366 362 358 361 356 356 356 355 354 354 351 351 350 349 349 349 349 349 348 345 343 344 346 345 345 344 345 346 345 347 348 349 348 348 346 343 343 347 347 347
365 366 364 354 353 351 356 356 355 358 354 353 351 352 350 349 348 348 348 349 350 349 347 346 347 344 344 345 343 343 348 347 348 349 350 350 349 341 340 340 342 342 345
Wind_Speed
19 20 19 18 16 15 13 12 11 11 11 12 11 10 10 9 9 9 9 8 8 8 8 8 9 9 10 10 10 10 11 12 13 14 15 14 14 16 12 10 13 14 14
21 19 18 17 15 14 13 12 12 11 11 11 11 9 9 8 7 7 7 7 7 8 7 7 6 8 9 8 9 10 10 10 12 13 16 15 14 13 12 11 14 14 12
22 19 17 16 15 14 13 13 12 11 11 11 10 8 7 6 6 6 7 6 6 6 7 9 9 8 8 8 9 9 9 9 11 12 16 15 12 11 12 13 13 12 11
19 18 16 16 15 15 14 12 12 11 10 10 8 6 5 5 6 6 6 5 6 7 7 8 9 7 8 8 8 7 10 10 10 11 9 9 12 10 10 11 11 12 9
18 18 17 16 14 14 15 13 12 11 10 9 7 6 4 4 5 5 4 6 6 6 6 8 8 6 8 8 8 8 9 8 5 4 2 11 13 11 11 10 11 11 10
20 20 16 15 14 13 13 12 11 10 9 8 7 6 5 5 4 5 5 6 6 5 6 6 7 8 9 8 8 7 8 5 3 0 10 12 13 12 11 8 10 8 9
17 19 18 15 13 13 12 13 11 10 10 8 7 6 5 5 4 4 4 5 6 5 5 7 7 8 8 8 8 5 6 6 2 1 11 12 10 11 9 7 9 8 7
19 17 18 16 13 12 11 11 10 9 9 8 7 5 4 7 5 4 4 4 5 6 5 7 6 7 8 8 7 6 7 4 7 6 14 7 8 9 9 8 6 6 6
22 21 17 14 13 12 11 10 10 9 8 7 7 6 5 5 4 4 5 5 5 7 6 6 7 7 7 8 8 7 6 6 9 9 6 11 8 8 9 7 8 6 6
26 21 20 15 12 12 12 12 10 9 8 9 8 8 8 7 7 7 6 6 7 7 8 7 7 8 7 8 8 7 6 8 7 5 4 11 11 9 9 8 7 8 7
17 19 19 17 15 14 14 12 12 11 9 8 8 9 8 8 10 10 7 10 8 8 8 8 8 8 7 9 10 9 7 6 10 10 3 14 10 9 9 8 7 7 8
12 20 18 18 17 14 14 14 10 10 11 11 10 12 10 8 11 10 11 10 10 9 10 9 9 10 9 9 11 11 10 8 10 9 7 12 9 8 8 9 9 8 8
14 12 24 23 17 17 14 13 14 13 11 13 11 12 9 10 9 10 11 12 13 13 10 11 12 12 12 12 13 11 7 10 13 7 13 12 8 6 5 8 9 9 9
16 14 13 15 16 14 12 14 17 17 13 12 14 10 8 11 9 10 9 14 12 15 10 15 14 10 13 13 9 12 15 9 11 6 12 6 5 8 8 9 10 10 10
19 17 15 16 14 13 9 10 15 17 17 17 16 12 6 8 9 11 13 3 11 12 9 11 16 14 9 10 11 11 9 13 10 12 13 12 10 11 11 11 11 12 12
20 17 20 19 17 16 15 10 9 9 11 13 15 20 12 9 11 10 12 11 10 11 11 9 9 15 14 11 10 8 11 11 11 12 13 18 15 15 14 13 13 14 14
23 21 22 20 18 18 16 14 12 12 13 13 14 17 17 17 14 15 14 12 13 9 11 12 13 11 14 10 7 11 14 12 13 14 13 13 15 17 14 12 16 15 15
23 23 24 19 21 19 17 18 19 15 11 13 17 17 19 16 16 19 19 14 12 12 12 12 12 12 9 9 11 12 12 15 11 16 17 13 15 17 16 15 13 16 16
24 26 24 22 22 21 22 20 13 12 11 14 15 18 16 13 10 19 16 15 12 10 6 10 11 13 11 13 11 14 17 19 17 16 17 17 19 13 16 15 13 17 18
24 27 25 20 20 20 19 15 10 5 11 14 12 14 14 8 9 14 20 17 15 11 10 7 8 9 12 13 15 14 14 13 21 20 19 21 24 21 19 12 8 16 18
26 25 24 22 22 18 16 15 15 15 18 12 11 8 6 6 6 12 16 21 16 14 14 13 8 8 10 12 9 13 17 15 16 19 18 20 15 24 24 21 19 15 13
27 26 25 23 24 18 18 20 16 12 13 7 8 9 6 7 9 11 13 17 17 16 16 14 11 9 9 9 6 4 3 6 15 20 19 14 18 14 14 10 11 11 17
27 28 26 26 20 17 16 13 9 6 8 8 9 11 10 9 8 10 11 16 20 19 19 17 14 14 10 10 11 8 3 3 4 4 10 11 10 15 19 8 7 6 8
27 28 27 24 15 17 17 11 12 10 9 5 13 17 16 12 9 11 12 14 15 18 18 17 16 16 16 17 11 15 19 10 3 2 9 11 5 6 4 5 3 0 3
26 25 25 12 9 10 15 15 14 11 11 11 6 12 14 13 10 13 13 15 15 14 13 15 13 14 16 18 13 14 16 20 20 9 5 8 7 6 1 0 6 6 4
26 25 21 15 6 5 9 10 12 4 6 6 5 4 9 9 13 9 11 13 13 12 12 14 13 13 14 16 15 20 13 7 9 4 2 4 9 5 3 2 1 2 3
Wind_Direction
128 131 132 125 125 133 137 135 133 129 127 129 129 121 110 99 94 88 89 90 82 80 94 125 110 99 98 94 92 96 98 97 100 105 103 101 106 111 103 110 118 105 108
133 133 136 133 128 128 136 140 138 133 128 131 133 127 114 102 92 93 100 98 92 97 106 113 128 115 107 102 104 110 108 110 115 121 113 106 107 105 84 108 128 112 113
132 136 136 138 133 129 129 139 138 134 135 134 132 123 116 100 96 98 106 111 89 96 117 111 119 112 115 110 119 119 120 119 127 131 120 103 119 103 96 103 107 109 120
131 139 140 142 139 132 129 134 139 140 143 139 134 127 121 107 106 102 107 110 101 104 114 124 118 122 118 132 122 128 131 133 135 148 165 119 115 111 111 103 107 109 117
137 142 149 142 139 136 137 140 138 140 141 139 139 135 125 123 126 126 119 118 120 117 117 122 126 125 130 127 133 133 142 144 153 202 309 122 122 120 111 110 107 116 124
135 134 147 147 144 140 139 138 137 136 139 141 142 139 141 137 139 140 143 140 130 135 136 134 136 136 140 140 149 147 157 174 184 115 107 109 135 123 115 107 124 122 122
121 131 146 154 149 148 150 146 145 146 147 146 147 153 140 134 136 131 149 148 145 146 149 150 147 149 151 155 162 168 180 184 223 154 125 140 136 133 132 129 124 134 118
144 137 141 156 157 158 159 159 158 158 156 162 162 158 138 149 134 140 140 160 164 160 164 151 161 160 167 163 172 185 196 242 296 322 144 153 131 145 144 141 149 142 140
141 136 146 150 159 165 169 173 175 174 174 175 177 177 175 191 208 190 185 181 171 172 167 173 180 176 180 180 186 195 219 236 274 333 190 173 154 158 154 153 162 162 146
135 146 146 162 168 172 180 183 188 189 193 197 194 192 195 199 211 218 200 203 188 182 182 179 184 184 186 194 197 214 237 263 275 277 282 172 152 149 170 165 166 177 175
147 150 153 164 181 182 183 190 190 198 203 212 218 212 212 209 222 218 214 204 194 190 187 188 188 194 200 201 208 217 235 247 273 300 9 171 153 146 172 185 189 190 199
187 153 159 167 170 184 190 188 192 202 202 213 216 223 219 214 214 200 196 199 208 200 194 195 199 200 210 218 222 219 230 250 274 296 271 182 159 159 163 191 202 207 207
181 181 166 171 173 184 207 180 173 204 213 207 216 202 234 221 205 203 213 210 211 202 197 203 206 207 213 220 215 225 231 234 256 295 185 174 170 175 180 196 208 218 219
175 193 176 169 173 192 168 174 192 196 194 204 211 215 265 225 220 227 224 219 214 202 194 206 204 207 210 231 235 229 226 265 249 221 188 203 247 220 214 215 218 224 226
168 188 174 163 174 197 212 196 193 201 203 213 218 210 193 228 235 221 243 207 195 178 199 218 220 214 208 227 249 237 229 258 262 231 246 252 239 238 225 224 225 231 236
169 184 169 169 187 198 209 213 217 217 212 230 235 232 229 229 248 239 230 229 218 198 202 220 232 228 216 213 228 228 251 262 265 263 251 240 240 236 231 231 228 227 232
168 179 168 172 188 195 202 210 213 220 216 229 242 249 244 241 243 237 232 231 228 203 217 232 228 226 224 215 221 233 244 244 259 264 269 243 244 235 237 244 243 236 234
170 179 172 182 188 195 197 211 206 223 232 244 245 257 259 253 248 229 227 224 220 213 221 224 229 233 233 233 240 238 250 251 261 256 260 264 255 246 234 238 249 247 243
175 172 175 181 186 199 203 213 219 189 225 237 250 248 241 245 243 218 217 221 212 197 209 212 216 222 235 247 243 247 251 255 240 250 250 249 249 242 232 247 256 252 241
171 171 175 178 193 203 208 216 206 280 245 234 244 248 224 236 240 208 212 214 215 200 196 206 220 230 238 243 258 267 256 273 244 246 253 264 246 244 244 231 244 244 245
171 170 168 180 197 195 196 213 199 209 232 214 200 187 199 252 241 205 218 217 207 201 209 207 213 241 248 259 257 272 275 270 262 253 250 260 252 242 236 240 239 223 230
177 169 169 200 211 192 198 220 207 195 199 198 193 196 195 210 221 203 215 201 201 203 207 212 223 235 251 262 265 289 283 284 257 248 250 265 252 283 238 255 275 257 249
177 172 171 203 199 190 211 229 239 259 203 199 194 189 190 209 222 187 196 203 215 216 219 223 234 230 247 271 241 231 258 246 329 294 269 267 229 272 286 281 259 264 255
176 170 168 199 193 198 202 212 208 216 230 231 217 201 183 186 203 203 213 202 214 221 228 233 229 238 241 251 260 245 246 248 187 4 323 281 114 128 178 264 329 179 240
172 159 177 179 194 203 204 218 211 212 251 235 224 167 173 179 204 211 209 203 208 215 219 217 230 242 244 249 246 270 258 253 254 232 238 193 134 136 204 108 9 338 307
152 152 167 164 184 216 203 236 245 258 245 291 263 195 177 196 207 211 211 209 211 211 215 216 230 230 232 237 247 250 253 237 247 227 246 144 142 101 77 85 264 25 23